User: anonymous   Login
Location: Elk Forest
(39.5314°N, 75.8738°W)
Time: 19:23:55
(UTC-04:00)
Language:

Resurs 01 Rocket - Orbit

View from above orbital plane
View from above orbital plane
View from above satellite
View from above satellite

Ground track
Ground track

The orbit data is extracted from the following two-line orbital elements,

1 23343U 94074B   16239.17470113 -.00000008  00000-0  64687-5 0  9999
2 23343  98.1895 266.7014 0005759 305.3062  94.6498 14.76667973173296
Epoch (UTC): 26 August 2016 04:11:34
Eccentricity: 0.0005759
inclination: 98.1895°
perigee height: 636 km
apogee height: 644 km
right ascension of ascending node: 266.7014°
argument of perigee: 305.3062°
revolutions per day: 14.76667973
mean anomaly at epoch: 94.6498°
orbit number at epoch: 17329

The dashed part of the orbit path shows where the satellite is in the earth's shadow,  

DLR